HAWK55 KNTU-KNTU

Flight info

Callsign HAWK55
Flight time N/A
Altitude 13500
Route IMELL
Aircraft F35/M-SDFIRY/LB1

Departure

Time 2026-04-25 23:05
Airport Oceana Naval Air Station (KNTU)

Arrival

Time N/A
Airport Oceana Naval Air Station (KNTU)
Time Latitude Longitude Altitude Speed Heading
2026-04-25 23:01 36.81261 -76.03647 30 ft 0 kts 222°
2026-04-25 23:02 36.81251 -76.03667 30 ft 3 kts 274°
2026-04-25 23:02 36.81279 -76.03710 30 ft 11 kts 309°
2026-04-25 23:02 36.81277 -76.03793 30 ft 9 kts 299°
2026-04-25 23:03 36.81322 -76.03880 29 ft 14 kts 267°
2026-04-25 23:03 36.81334 -76.03983 29 ft 12 kts 312°
2026-04-25 23:03 36.81401 -76.04035 28 ft 10 kts 13°
2026-04-25 23:03 36.81524 -76.03898 28 ft 65 kts 42°
2026-04-25 23:04 36.82087 -76.03261 30 ft 149 kts 42°
2026-04-25 23:04 36.82633 -76.02639 102 ft 165 kts 43°
2026-04-25 23:04 36.83944 -76.01154 489 ft 228 kts 45°
2026-04-25 23:04 36.84843 -75.99426 534 ft 244 kts 71°
2026-04-25 23:05 36.85304 -75.97405 626 ft 240 kts 79°
2026-04-25 23:05 36.85550 -75.95367 454 ft 228 kts 87°
2026-04-25 23:05 36.85752 -75.93326 781 ft 244 kts 87°
2026-04-25 23:05 36.85997 -75.91213 1204 ft 252 kts 82°
2026-04-25 23:06 36.86364 -75.89055 1633 ft 257 kts 80°
2026-04-25 23:06 36.86770 -75.86916 2060 ft 257 kts 79°
2026-04-25 23:06 36.87184 -75.84759 2517 ft 257 kts 79°
2026-04-25 23:06 36.87601 -75.82566 2980 ft 259 kts 79°
2026-04-25 23:07 36.88019 -75.80350 3443 ft 265 kts 78°
2026-04-25 23:07 36.88431 -75.78113 3905 ft 269 kts 79°
2026-04-25 23:07 36.88853 -75.75803 4379 ft 272 kts 78°
2026-04-25 23:07 36.89272 -75.73475 4844 ft 277 kts 78°
2026-04-25 23:08 36.89680 -75.71164 5291 ft 278 kts 78°
2026-04-25 23:08 36.90088 -75.68790 5770 ft 281 kts 79°
2026-04-25 23:08 36.90373 -75.66057 6298 ft 384 kts 85°
2026-04-25 23:08 36.90560 -75.62563 6845 ft 403 kts 88°
2026-04-25 23:09 36.90691 -75.59022 7259 ft 408 kts 88°
2026-04-25 23:09 36.90797 -75.55471 7437 ft 410 kts 88°
2026-04-25 23:09 36.90894 -75.51910 7509 ft 411 kts 89°
2026-04-25 23:09 36.90984 -75.48353 7539 ft 410 kts 89°
2026-04-25 23:10 36.91074 -75.44793 7554 ft 410 kts 89°
2026-04-25 23:10 36.91163 -75.41289 7551 ft 410 kts 89°
2026-04-25 23:10 36.91257 -75.37728 7548 ft 408 kts 89°
2026-04-25 23:10 36.91352 -75.34173 7544 ft 410 kts 89°
2026-04-25 23:11 36.91447 -75.30621 7541 ft 410 kts 89°
2026-04-25 23:11 36.91543 -75.27062 7538 ft 409 kts 89°
2026-04-25 23:11 36.91640 -75.23511 7537 ft 409 kts 89°
2026-04-25 23:11 36.91739 -75.19946 7542 ft 410 kts 89°
2026-04-25 23:12 36.91838 -75.16393 7540 ft 409 kts 89°
2026-04-25 23:12 36.91939 -75.12834 7539 ft 409 kts 89°
2026-04-25 23:12 36.92041 -75.09279 7540 ft 410 kts 89°
2026-04-25 23:12 36.92143 -75.05726 7542 ft 409 kts 89°
2026-04-25 23:13 36.92250 -75.02201 7540 ft 410 kts 89°
2026-04-25 23:13 36.92362 -74.98629 7542 ft 411 kts 88°
2026-04-25 23:13 36.92474 -74.95059 7545 ft 412 kts 88°
2026-04-25 23:13 36.92588 -74.91495 7544 ft 410 kts 88°
2026-04-25 23:14 36.92702 -74.87921 7543 ft 412 kts 88°
2026-04-25 23:14 36.92817 -74.84358 7547 ft 410 kts 88°
2026-04-25 23:14 36.92933 -74.80788 7545 ft 412 kts 88°
2026-04-25 23:14 36.93049 -74.77221 7551 ft 411 kts 88°
2026-04-25 23:15 36.93164 -74.73697 7552 ft 410 kts 88°
2026-04-25 23:15 36.93282 -74.70131 7552 ft 411 kts 88°
2026-04-25 23:15 36.93401 -74.66565 7552 ft 411 kts 88°
2026-04-25 23:15 36.93520 -74.62990 7555 ft 411 kts 88°
2026-04-25 23:16 36.93641 -74.59422 7555 ft 411 kts 88°
2026-04-25 23:16 36.93765 -74.55749 7574 ft 462 kts 88°
2026-04-25 23:16 36.93911 -74.51176 7600 ft 585 kts 88°
2026-04-25 23:16 36.94079 -74.45723 7606 ft 663 kts 88°
2026-04-25 23:17 36.94263 -74.39714 7632 ft 721 kts 88°
2026-04-25 23:17 36.94455 -74.33343 7649 ft 763 kts 88°
2026-04-25 23:17 36.94662 -74.26591 7648 ft 790 kts 88°
2026-04-25 23:17 36.94870 -74.19804 7640 ft 765 kts 88°
2026-04-25 23:18 36.95074 -74.13291 7621 ft 739 kts 88°
2026-04-25 23:18 36.95275 -74.06953 7607 ft 721 kts 88°
2026-04-25 23:18 36.95476 -74.00746 7591 ft 709 kts 88°
2026-04-25 23:18 36.95697 -73.94623 7587 ft 700 kts 88°
2026-04-25 23:19 36.95761 -73.88653 7578 ft 694 kts 91°
2026-04-25 23:19 36.95650 -73.82655 7555 ft 687 kts 92°
2026-04-25 23:19 36.95485 -73.76751 7521 ft 670 kts 92°
2026-04-25 23:19 36.95304 -73.70983 7050 ft 662 kts 93°
2026-04-25 23:20 36.95121 -73.65238 6338 ft 662 kts 93°
2026-04-25 23:20 36.94942 -73.59509 5942 ft 657 kts 93°
2026-04-25 23:20 36.94831 -73.55733 5813 ft 654 kts 93°
2026-04-25 23:20 36.94628 -73.48170 5713 ft 651 kts 93°
2026-04-25 23:21 36.94491 -73.42587 5677 ft 650 kts 93°
2026-04-25 23:21 36.94353 -73.36945 5664 ft 650 kts 93°
2026-04-25 23:21 36.94227 -73.31294 5641 ft 649 kts 92°
2026-04-25 23:21 36.94197 -73.25648 5210 ft 653 kts 89°
2026-04-25 23:22 36.94673 -73.19989 4434 ft 653 kts 85°
2026-04-25 23:22 36.95330 -73.14413 3963 ft 645 kts 84°
2026-04-25 23:22 36.95802 -73.10757 3828 ft 640 kts 83°
2026-04-25 23:23 36.96721 -73.01840 3641 ft 408 kts 101°
2026-04-25 23:23 36.95900 -72.97782 3518 ft 328 kts 109°
2026-04-25 23:23 36.95576 -72.95150 3470 ft 288 kts 96°
2026-04-25 23:23 36.95528 -72.92839 3447 ft 246 kts 97°
2026-04-25 23:24 36.95481 -72.90732 3456 ft 244 kts 97°
2026-04-25 23:24 36.95455 -72.89328 3466 ft 240 kts 98°
2026-04-25 23:24 36.95420 -72.87214 3484 ft 246 kts 98°
2026-04-25 23:24 36.95390 -72.85097 3485 ft 242 kts 93°
2026-04-25 23:25 36.95792 -72.83007 3502 ft 248 kts 79°
2026-04-25 23:25 36.95506 -72.80384 3546 ft 228 kts 131°
2026-04-25 23:25 36.94265 -72.79260 3554 ft 225 kts 157°
2026-04-25 23:25 36.93218 -72.78539 3062 ft 284 kts 145°
2026-04-25 23:26 36.92096 -72.76501 2195 ft 302 kts 97°
2026-04-25 23:26 36.92359 -72.73517 567 ft 413 kts 94°
2026-04-25 23:26 36.90545 -72.71030 2808 ft 404 kts 120°
2026-04-25 23:26 36.91729 -72.68154 3054 ft 424 kts 16°
2026-04-25 23:27 36.94398 -72.68916 3102 ft 375 kts 327°
2026-04-25 23:27 36.96181 -72.71032 2756 ft 329 kts 300°
2026-04-25 23:27 36.96469 -72.73401 2858 ft 248 kts 236°
2026-04-25 23:27 36.95116 -72.74326 3022 ft 226 kts 178°
2026-04-25 23:28 36.93609 -72.73911 2959 ft 225 kts 155°
2026-04-25 23:28 36.92300 -72.72921 3082 ft 217 kts 139°
2026-04-25 23:28 36.91601 -72.71208 3076 ft 236 kts 108°
2026-04-25 23:28 36.91547 -72.69181 3050 ft 242 kts 85°
2026-04-25 23:29 36.92362 -72.67279 3067 ft 263 kts 47°
2026-04-25 23:29 36.94120 -72.66660 3044 ft 275 kts 347°
2026-04-25 23:29 36.95628 -72.68108 2944 ft 276 kts 303°
2026-04-25 23:29 36.96286 -72.70275 2896 ft 265 kts 267°
2026-04-25 23:30 36.95771 -72.72359 2727 ft 245 kts 222°
2026-04-25 23:30 36.94398 -72.73246 2498 ft 222 kts 181°
2026-04-25 23:30 36.92914 -72.72866 2592 ft 216 kts 152°
2026-04-25 23:30 36.91735 -72.71695 2509 ft 216 kts 131°
2026-04-25 23:31 36.90911 -72.70101 2473 ft 221 kts 122°
2026-04-25 23:31 36.90232 -72.68345 2493 ft 223 kts 115°
2026-04-25 23:31 36.89941 -72.66635 2601 ft 186 kts 91°
2026-04-25 23:31 36.90679 -72.65385 2483 ft 218 kts 23°
2026-04-25 23:32 36.92154 -72.66075 2282 ft 261 kts 291°
2026-04-25 23:32 36.91816 -72.68010 2319 ft 249 kts 203°
2026-04-25 23:32 36.90214 -72.67688 2281 ft 256 kts 136°
2026-04-25 23:32 36.89492 -72.65787 2402 ft 234 kts 93°
2026-04-25 23:33 36.90214 -72.63888 2098 ft 255 kts 48°
2026-04-25 23:33 36.91961 -72.63251 2258 ft 275 kts
2026-04-25 23:33 36.93490 -72.64450 2271 ft 274 kts 284°
2026-04-25 23:33 36.92860 -72.66378 2314 ft 244 kts 210°
2026-04-25 23:34 36.91366 -72.66790 2308 ft 218 kts 165°
2026-04-25 23:34 36.90057 -72.65854 2332 ft 230 kts 139°
2026-04-25 23:34 36.89103 -72.64110 2074 ft 314 kts 78°
2026-04-25 23:34 36.91158 -72.63896 2172 ft 422 kts 304°
2026-04-25 23:35 36.90627 -72.65407 1870 ft 182 kts 116°
2026-04-25 23:35 36.89617 -72.63234 247 ft 398 kts 128°
2026-04-25 23:35 36.87457 -72.63750 2529 ft 445 kts 262°
2026-04-25 23:35 36.89614 -72.66762 2312 ft 531 kts 316°
2026-04-25 23:36 36.90203 -72.70872 2583 ft 516 kts 238°
2026-04-25 23:36 36.87291 -72.72428 2544 ft 481 kts 160°
2026-04-25 23:36 36.84913 -72.69749 2630 ft 468 kts 113°
2026-04-25 23:36 36.85369 -72.65936 2872 ft 475 kts 62°
2026-04-25 23:37 36.86872 -72.61860 2503 ft 561 kts 76°
2026-04-25 23:37 36.87809 -72.57068 4101 ft 577 kts 81°
2026-04-25 23:37 36.90160 -72.54592 3737 ft 531 kts 342°
2026-04-25 23:37 36.92887 -72.56932 2749 ft 454 kts 307°
2026-04-25 23:38 36.94198 -72.60703 3528 ft 460 kts 264°
2026-04-25 23:38 36.93283 -72.63994 3815 ft 389 kts 233°
2026-04-25 23:38 36.91470 -72.66178 3460 ft 342 kts 192°
2026-04-25 23:38 36.89526 -72.65483 3165 ft 279 kts 134°
2026-04-25 23:39 36.88725 -72.63405 2483 ft 266 kts 107°
2026-04-25 23:39 36.88425 -72.61141 1490 ft 263 kts 102°
2026-04-25 23:39 36.88108 -72.59037 1198 ft 212 kts 125°
2026-04-25 23:39 36.87196 -72.59660 1438 ft 271 kts 306°
2026-04-25 23:40 36.88054 -72.59195 1317 ft 196 kts 105°
2026-04-25 23:40 36.87570 -72.57339 1232 ft 247 kts 103°
2026-04-25 23:40 36.88584 -72.56432 1163 ft 228 kts 308°
2026-04-25 23:40 36.88110 -72.57999 1356 ft 254 kts 191°
2026-04-25 23:41 36.86767 -72.56932 2056 ft 282 kts 65°
2026-04-25 23:41 36.88248 -72.57856 2490 ft 332 kts 308°
2026-04-25 23:41 36.89665 -72.60071 2517 ft 308 kts 307°
2026-04-25 23:41 36.90925 -72.62033 2555 ft 280 kts 307°
2026-04-25 23:42 36.92152 -72.63935 2548 ft 282 kts 307°
2026-04-25 23:42 36.93363 -72.65811 2538 ft 278 kts 307°
2026-04-25 23:42 36.94564 -72.67659 2528 ft 273 kts 307°
2026-04-25 23:42 36.95797 -72.69545 2524 ft 279 kts 308°
2026-04-25 23:43 36.97027 -72.71420 2517 ft 279 kts 307°
2026-04-25 23:43 36.98275 -72.73310 2513 ft 281 kts 307°
2026-04-25 23:43 36.99501 -72.75172 2511 ft 276 kts 307°
2026-04-25 23:43 37.00719 -72.77054 2515 ft 277 kts 301°
2026-04-25 23:44 37.01684 -72.79084 2526 ft 273 kts 295°
2026-04-25 23:44 37.02554 -72.81182 2518 ft 273 kts 293°
2026-04-25 23:44 37.03438 -72.83273 2519 ft 277 kts 296°
2026-04-25 23:44 37.04439 -72.85323 2517 ft 279 kts 298°
2026-04-25 23:45 37.05429 -72.87382 2513 ft 276 kts 296°
2026-04-25 23:45 37.06384 -72.89467 2514 ft 279 kts 295°
2026-04-25 23:45 37.07341 -72.91547 2513 ft 273 kts 297°
2026-04-25 23:45 37.08322 -72.93618 2513 ft 277 kts 296°
2026-04-25 23:46 37.09301 -72.95709 2517 ft 275 kts 296°
2026-04-25 23:46 37.10256 -72.97774 2508 ft 275 kts 296°
2026-04-25 23:46 37.11222 -72.99845 2504 ft 275 kts 297°
2026-04-25 23:46 37.12172 -73.01878 2503 ft 274 kts 297°
2026-04-25 23:47 37.13128 -73.03933 2499 ft 274 kts 297°
2026-04-25 23:47 37.14085 -73.05992 2499 ft 274 kts 297°
2026-04-25 23:47 37.15048 -73.08061 2499 ft 275 kts 296°
2026-04-25 23:47 37.16009 -73.10131 2494 ft 274 kts 297°
2026-04-25 23:48 37.16967 -73.12197 2493 ft 274 kts 296°
2026-04-25 23:48 37.17933 -73.14274 2493 ft 275 kts 296°
2026-04-25 23:48 37.18912 -73.16392 2498 ft 288 kts 296°
2026-04-25 23:48 37.19896 -73.18516 2500 ft 287 kts 297°
2026-04-25 23:49 37.20889 -73.20654 2497 ft 285 kts 297°
2026-04-25 23:49 37.21886 -73.22805 2495 ft 285 kts 296°
2026-04-25 23:49 37.22875 -73.24953 2488 ft 283 kts 297°
2026-04-25 23:49 37.23867 -73.27099 2486 ft 283 kts 297°
2026-04-25 23:50 37.24861 -73.29246 2482 ft 283 kts 297°
2026-04-25 23:50 37.25853 -73.31396 2493 ft 286 kts 297°
2026-04-25 23:50 37.26848 -73.33553 2485 ft 286 kts 297°
2026-04-25 23:50 37.27828 -73.35680 2482 ft 286 kts 297°
2026-04-25 23:51 37.28822 -73.37836 2474 ft 285 kts 297°
2026-04-25 23:51 37.29817 -73.39999 2474 ft 285 kts 297°
2026-04-25 23:51 37.30810 -73.42156 2474 ft 286 kts 297°
2026-04-25 23:51 37.31802 -73.44313 2473 ft 285 kts 297°
2026-04-25 23:52 37.32794 -73.46475 2476 ft 285 kts 297°
2026-04-25 23:52 37.33786 -73.48635 2477 ft 286 kts 297°
2026-04-25 23:52 37.34776 -73.50792 2479 ft 285 kts 297°
2026-04-25 23:52 37.35770 -73.52960 2465 ft 285 kts 296°
2026-04-25 23:53 37.36759 -73.55118 2466 ft 286 kts 296°
2026-04-25 23:53 37.37738 -73.57254 2466 ft 285 kts 296°
2026-04-25 23:53 37.38729 -73.59421 2467 ft 286 kts 296°
2026-04-25 23:53 37.39718 -73.61583 2467 ft 286 kts 296°
2026-04-25 23:54 37.40708 -73.63750 2468 ft 285 kts 296°
2026-04-25 23:54 37.41697 -73.65907 2472 ft 280 kts 296°
2026-04-25 23:54 37.42673 -73.68042 2470 ft 281 kts 295°
2026-04-25 23:54 37.43643 -73.70186 2463 ft 281 kts 295°
2026-04-25 23:55 37.44618 -73.72325 2462 ft 283 kts 295°
2026-04-25 23:55 37.45581 -73.74431 2461 ft 282 kts 295°
2026-04-25 23:55 37.46557 -73.76574 2461 ft 281 kts 295°
2026-04-25 23:55 37.47529 -73.78715 2461 ft 282 kts 295°
2026-04-25 23:56 37.48501 -73.80854 2455 ft 282 kts 295°
2026-04-25 23:56 37.49475 -73.82995 2455 ft 281 kts 295°
2026-04-25 23:56 37.50449 -73.85141 2455 ft 282 kts 295°
2026-04-25 23:56 37.51420 -73.87282 2455 ft 282 kts 295°
2026-04-25 23:57 37.52392 -73.89425 2455 ft 281 kts 295°
2026-04-25 23:57 37.53364 -73.91569 2458 ft 282 kts 295°
2026-04-25 23:57 37.54333 -73.93709 2455 ft 282 kts 295°
2026-04-25 23:57 37.55294 -73.95839 2457 ft 285 kts 296°
2026-04-25 23:58 37.56279 -73.98015 2464 ft 287 kts 296°
2026-04-25 23:58 37.57266 -74.00189 2461 ft 286 kts 296°
2026-04-25 23:58 37.58234 -74.02327 2465 ft 281 kts 295°
2026-04-25 23:58 37.59190 -74.04455 2462 ft 280 kts 295°
2026-04-25 23:59 37.60149 -74.06587 2455 ft 279 kts 295°
2026-04-25 23:59 37.61111 -74.08715 2452 ft 278 kts 295°
2026-04-25 23:59 37.62071 -74.10846 2458 ft 279 kts 295°
2026-04-25 23:59 37.63028 -74.12973 2453 ft 280 kts 295°
2026-04-26 00:00 37.63983 -74.15097 2460 ft 274 kts 295°
2026-04-26 00:00 37.64939 -74.17222 2455 ft 278 kts 295°
2026-04-26 00:00 37.65883 -74.19324 2456 ft 278 kts 295°
2026-04-26 00:00 37.66841 -74.21458 2457 ft 279 kts 295°
2026-04-26 00:01 37.67797 -74.23588 2451 ft 280 kts 295°
2026-04-26 00:01 37.68752 -74.25717 2449 ft 279 kts 295°
2026-04-26 00:01 37.69707 -74.27849 2460 ft 278 kts 295°
2026-04-26 00:01 37.70663 -74.29983 2453 ft 279 kts 295°
2026-04-26 00:02 37.71616 -74.32112 2457 ft 279 kts 295°
2026-04-26 00:02 37.72571 -74.34248 2451 ft 279 kts 295°
2026-04-26 00:02 37.73521 -74.36375 2461 ft 274 kts 295°
2026-04-26 00:02 37.74448 -74.38451 2458 ft 275 kts 295°
2026-04-26 00:03 37.75389 -74.40559 2464 ft 276 kts 295°
2026-04-26 00:03 37.76329 -74.42664 2462 ft 276 kts 295°
2026-04-26 00:03 37.77268 -74.44772 2462 ft 275 kts 295°
2026-04-26 00:03 37.78208 -74.46881 2466 ft 275 kts 295°
2026-04-26 00:04 37.79145 -74.48987 2459 ft 275 kts 295°
2026-04-26 00:04 37.80082 -74.51092 2462 ft 275 kts 295°
2026-04-26 00:04 37.81018 -74.53198 2461 ft 274 kts 295°
2026-04-26 00:04 37.81954 -74.55305 2460 ft 274 kts 295°
2026-04-26 00:05 37.82875 -74.57378 2470 ft 275 kts 295°
2026-04-26 00:05 37.83808 -74.59482 2469 ft 274 kts 295°
2026-04-26 00:05 37.84742 -74.61588 2465 ft 274 kts 295°
2026-04-26 00:05 37.85674 -74.63692 2465 ft 275 kts 295°
2026-04-26 00:06 37.86606 -74.65795 2459 ft 274 kts 295°
2026-04-26 00:06 37.87539 -74.67904 2460 ft 275 kts 295°
2026-04-26 00:06 37.88471 -74.70012 2460 ft 275 kts 295°
2026-04-26 00:06 37.89411 -74.72137 2457 ft 280 kts 295°
2026-04-26 00:07 37.90359 -74.74284 2451 ft 280 kts 295°
2026-04-26 00:07 37.91297 -74.76406 2454 ft 280 kts 295°
2026-04-26 00:07 37.92243 -74.78553 2449 ft 279 kts 295°
2026-04-26 00:07 37.93193 -74.80707 2447 ft 279 kts 295°
2026-04-26 00:08 37.94140 -74.82860 2446 ft 279 kts 295°
2026-04-26 00:08 37.95087 -74.85009 2447 ft 280 kts 295°
2026-04-26 00:08 37.96035 -74.87163 2453 ft 280 kts 294°
2026-04-26 00:08 37.96981 -74.89314 2453 ft 281 kts 294°
2026-04-26 00:09 37.97926 -74.91468 2455 ft 279 kts 294°
2026-04-26 00:09 37.98871 -74.93621 2459 ft 278 kts 294°
2026-04-26 00:09 37.99806 -74.95748 2454 ft 279 kts 295°
2026-04-26 00:09 38.00751 -74.97905 2454 ft 280 kts 294°
2026-04-26 00:10 38.01693 -75.00058 2455 ft 280 kts 294°
2026-04-26 00:10 38.02636 -75.02209 2456 ft 280 kts 294°
2026-04-26 00:10 38.03580 -75.04365 2454 ft 278 kts 294°
2026-04-26 00:10 38.04523 -75.06521 2459 ft 278 kts 294°
2026-04-26 00:11 38.05459 -75.08667 2456 ft 278 kts 295°
2026-04-26 00:11 38.06399 -75.10814 2456 ft 282 kts 294°
2026-04-26 00:11 38.07335 -75.12962 2455 ft 280 kts 294°
2026-04-26 00:11 38.08278 -75.15122 2460 ft 280 kts 294°
2026-04-26 00:12 38.09208 -75.17261 2455 ft 280 kts 294°
2026-04-26 00:12 38.10138 -75.19404 2478 ft 276 kts 294°
2026-04-26 00:12 38.11081 -75.21551 2493 ft 278 kts 294°
2026-04-26 00:12 38.12010 -75.23698 2501 ft 279 kts 294°
2026-04-26 00:13 38.12932 -75.25833 2505 ft 275 kts 295°
2026-04-26 00:13 38.13861 -75.27960 2506 ft 275 kts 295°
2026-04-26 00:13 38.14796 -75.30097 2505 ft 279 kts 294°
2026-04-26 00:13 38.15726 -75.32250 2506 ft 280 kts 294°
2026-04-26 00:14 38.16653 -75.34404 2522 ft 275 kts 294°
2026-04-26 00:14 38.17582 -75.36537 2522 ft 277 kts 294°
2026-04-26 00:14 38.18522 -75.38700 2522 ft 278 kts 293°
2026-04-26 00:14 38.19440 -75.40838 2470 ft 280 kts 294°
2026-04-26 00:15 38.20380 -75.43032 1918 ft 281 kts 296°
2026-04-26 00:15 38.21301 -75.45166 1684 ft 275 kts 298°
2026-04-26 00:15 38.22252 -75.47335 1564 ft 280 kts 298°
2026-04-26 00:15 38.23195 -75.49516 1517 ft 280 kts 298°
2026-04-26 00:16 38.24123 -75.51688 1500 ft 281 kts 298°
2026-04-26 00:16 38.25060 -75.53863 1495 ft 280 kts 298°
2026-04-26 00:16 38.26000 -75.56037 1491 ft 280 kts 298°
2026-04-26 00:16 38.26932 -75.58200 1486 ft 271 kts 298°
2026-04-26 00:17 38.27815 -75.60260 1483 ft 269 kts 298°
2026-04-26 00:17 38.28713 -75.62349 1474 ft 270 kts 298°
2026-04-26 00:17 38.29615 -75.64444 1476 ft 271 kts 298°
2026-04-26 00:17 38.30515 -75.66546 1468 ft 272 kts 298°
2026-04-26 00:18 38.31419 -75.68658 1467 ft 271 kts 298°
2026-04-26 00:18 38.32327 -75.70774 1470 ft 272 kts 298°
2026-04-26 00:18 38.33234 -75.72890 1469 ft 273 kts 298°
2026-04-26 00:18 38.34139 -75.75008 1480 ft 272 kts 298°
2026-04-26 00:19 38.35033 -75.77097 1490 ft 272 kts 298°
2026-04-26 00:19 38.35932 -75.79198 1503 ft 260 kts 298°
2026-04-26 00:19 38.36808 -75.81250 1523 ft 263 kts 298°
2026-04-26 00:19 38.37686 -75.83311 1530 ft 264 kts 298°
2026-04-26 00:20 38.38563 -75.85367 1527 ft 265 kts 298°
2026-04-26 00:20 38.39441 -75.87424 1529 ft 264 kts 298°
2026-04-26 00:20 38.40320 -75.89489 1530 ft 264 kts 298°
2026-04-26 00:20 38.41196 -75.91547 1530 ft 265 kts 298°
2026-04-26 00:21 38.42074 -75.93610 1535 ft 264 kts 298°
2026-04-26 00:21 38.42939 -75.95644 1557 ft 265 kts 298°
2026-04-26 00:21 38.43815 -75.97706 1556 ft 264 kts 298°
2026-04-26 00:21 38.44692 -75.99772 1557 ft 264 kts 298°
2026-04-26 00:22 38.45567 -76.01835 1555 ft 265 kts 298°
2026-04-26 00:22 38.46442 -76.03899 1556 ft 264 kts 298°
2026-04-26 00:22 38.47319 -76.05968 1556 ft 266 kts 298°
2026-04-26 00:22 38.48196 -76.08039 1555 ft 266 kts 298°
2026-04-26 00:23 38.49077 -76.10123 1555 ft 266 kts 298°
2026-04-26 00:23 38.49958 -76.12205 1553 ft 267 kts 298°
2026-04-26 00:23 38.50840 -76.14290 1551 ft 266 kts 298°
2026-04-26 00:23 38.51704 -76.16332 1557 ft 262 kts 298°
2026-04-26 00:24 38.52562 -76.18367 1560 ft 259 kts 298°
2026-04-26 00:24 38.53409 -76.20374 1565 ft 260 kts 297°
2026-04-26 00:24 38.54284 -76.22448 1548 ft 264 kts 297°
2026-04-26 00:24 38.55158 -76.24526 1535 ft 264 kts 297°
2026-04-26 00:25 38.56030 -76.26601 1531 ft 266 kts 297°
2026-04-26 00:25 38.56903 -76.28673 1535 ft 266 kts 297°
2026-04-26 00:25 38.57940 -76.30604 1540 ft 266 kts 320°
2026-04-26 00:25 38.59554 -76.31688 1549 ft 263 kts 342°
2026-04-26 00:26 38.61261 -76.32371 1533 ft 262 kts 347°
2026-04-26 00:26 38.63024 -76.32981 1519 ft 262 kts 348°
2026-04-26 00:26 38.64774 -76.33544 1527 ft 258 kts 349°
2026-04-26 00:26 38.66540 -76.34105 1529 ft 261 kts 349°
2026-04-26 00:27 38.68301 -76.34448 1533 ft 255 kts 10°
2026-04-26 00:27 38.69880 -76.33593 1545 ft 246 kts 47°
2026-04-26 00:27 38.70771 -76.31792 1562 ft 238 kts 72°
2026-04-26 00:27 38.71334 -76.29812 1537 ft 236 kts 76°
2026-04-26 00:28 38.71815 -76.27796 1540 ft 236 kts 78°
2026-04-26 00:28 38.72267 -76.25775 1519 ft 236 kts 78°
2026-04-26 00:28 38.72700 -76.23743 1504 ft 234 kts 79°
2026-04-26 00:28 38.73111 -76.21741 1508 ft 234 kts 83°
2026-04-26 00:29 38.72900 -76.19747 1536 ft 228 kts 121°
2026-04-26 00:29 38.71722 -76.18460 1571 ft 230 kts 157°
2026-04-26 00:29 38.70200 -76.17869 1542 ft 228 kts 165°
2026-04-26 00:29 38.68635 -76.17450 1515 ft 230 kts 167°
2026-04-26 00:30 38.67057 -76.17091 1468 ft 230 kts 168°
2026-04-26 00:30 38.65472 -76.17090 1558 ft 234 kts 197°
2026-04-26 00:30 38.64220 -76.18412 2286 ft 242 kts 236°